Flag for United Kingdom Weather past 2 weeks in Kingston upon Hull, England, United Kingdom

Now
50 °F

Partly sunny.


Feels Like: 45 °F
Forecast: N/A
Wind: 15 mph from West

Location: Humberside

Current Time: Mar 5, 2015 at 4:51:39 PM

Latest Report: Mar 5, 2015 at 4:20 PM


Visibility: N/A

Pressure: 30.51 "Hg

Humidity: 67%

Dew point: 39 °F

Location of Kingston upon HullLocation

Historic Weather in Kingston upon Hull — Graph

°F

Kingston upon Hull temperature yesterday

Maximum temperature yesterday: 50 °F (at 12:50 PM)
Minimum temperature yesterday: 36 °F (at 11:50 PM)
Average temperature yesterday: 44 °F

Past Weeks' High & Low Weather Summary

 TemperatureHumidityPressure
High52 °F (Feb 18, 3:20 PM)100% (Feb 19, 10:50 PM)30.63 "Hg (Feb 19, 10:50 PM)
Low30 °F (Feb 22, 5:50 AM)37% (Mar 3, 2:20 PM)29.03 "Hg (Feb 23, 7:50 PM)
Average42 °F79%29.73 "Hg
* Reported Feb 18 3:20 PM — Mar 5 3:50 PM, Kingston upon Hull, Weather by CustomWeather, © 2015

Note: Actual official high and low records may vary slightly from our data, if they occured in-between our weather recording intervals... More about our weather records

Advertising

Kingston upon Hull weather history for previous 24 hours

 ConditionsComfort  
Time TempWeatherWind HumidityBarometerVisibility
3:50 PM
Thu, Mar 5
50 °FPartly sunny.17 mph67%30.54 "HgN/A
3:20 PM50 °FPartly sunny.18 mph62%30.54 "HgN/A
2:50 PM50 °FPartly sunny.15 mph62%30.54 "HgN/A
2:20 PM48 °FPartly sunny.17 mph71%30.54 "HgN/A
1:50 PM48 °FPartly sunny.16 mph71%30.54 "HgN/A
1:20 PM46 °FPartly sunny.20 mph76%30.54 "HgN/A
12:50 PM46 °FPartly sunny.21 mph76%30.54 "HgN/A
12:20 PM46 °FPartly sunny.22 mph76%30.54 "HgN/A
11:50 AM46 °FPartly sunny.21 mph76%30.57 "HgN/A
11:20 AM46 °FPartly sunny.18 mph76%30.57 "HgN/A
10:50 AM46 °FPartly sunny.20 mph76%30.57 "HgN/A
10:20 AM45 °FScattered clouds.17 mph81%30.57 "HgN/A
9:50 AM43 °FScattered clouds.17 mph81%30.60 "HgN/A
9:20 AM43 °FScattered clouds.18 mph81%30.60 "HgN/A
8:50 AM39 °FScattered clouds.15 mph93%30.60 "HgN/A
8:20 AM37 °FPassing clouds.16 mph93%30.60 "HgN/A
7:50 AM37 °FPassing clouds.15 mph87%30.60 "HgN/A
7:20 AM36 °FPassing clouds.9 mph93%30.60 "HgN/A
6:50 AM37 °FPassing clouds.10 mph87%30.60 "HgN/A
6:20 AM36 °FPassing clouds.9 mph87%30.60 "HgN/A
5:50 AM36 °FPassing clouds.14 mph87%30.60 "HgN/A
5:20 AM36 °FChilly.13 mph87%30.60 "HgN/A
4:20 AM37 °FChilly.14 mph87%30.60 "HgN/A
3:20 AM37 °FChilly.13 mph87%30.60 "HgN/A
2:50 AM37 °FChilly.12 mph87%30.60 "HgN/A
1:50 AM37 °FChilly.12 mph87%30.63 "HgN/A
1:20 AM37 °FChilly.10 mph87%30.63 "HgN/A
12:50 AM37 °FChilly.12 mph87%30.60 "HgN/A
12:20 AM39 °FChilly.10 mph87%30.60 "HgN/A
11:50 PM
Wed, Mar 4
36 °FChilly.8 mph93%30.60 "HgN/A
11:20 PM39 °FChilly.5 mph87%30.60 "HgN/A
10:50 PM39 °FChilly.8 mph87%30.60 "HgN/A
10:20 PM41 °FQuite cool.9 mph81%30.60 "HgN/A
9:20 PM41 °FClear.12 mph81%30.57 "Hg10 mi
8:50 PM43 °FClear.10 mph76%30.57 "Hg10 mi
8:20 PM45 °FClear.9 mph76%30.54 "Hg10 mi
7:50 PM45 °FClear.12 mph76%30.54 "Hg10 mi
7:20 PM45 °FPassing clouds.8 mph71%30.54 "HgN/A
6:50 PM43 °FPassing clouds.6 mph71%30.51 "HgN/A
6:20 PM45 °FPassing clouds.7 mph66%30.51 "HgN/A
5:50 PM46 °FPassing clouds.9 mph62%30.48 "HgN/A
5:20 PM48 °FPassing clouds.13 mph58%30.48 "HgN/A
4:50 PM50 °FScattered clouds.15 mph54%30.45 "HgN/A
4:20 PM50 °FScattered clouds.13 mph54%30.45 "HgN/A
Weather by CustomWeather, © 2015

See weather overviewHow to use our weather pages